Total_Precipitation_Accumulation
0.05 0.11 0.33 0.41 0.49 0.49 0.45 0.43 0.41 0.40 0.40 0.42 0.42 0.42 0.41 0.39 0.41 0.34 0.33 0.30 0.32 0.37 0.46 0.53 0.51 0.46 0.41 0.37 0.33 0.25 0.21 0.17 0.17 0.16 0.14 0.18 0.20 0.20 0.16 0.16 0.19 0.23 0.29
0.05 0.12 0.33 0.42 0.53 0.52 0.52 0.48 0.45 0.41 0.44 0.49 0.53 0.50 0.45 0.41 0.40 0.34 0.30 0.30 0.31 0.36 0.45 0.51 0.45 0.37 0.27 0.20 0.17 0.15 0.13 0.11 0.09 0.05 0.04 0.05 0.09 0.12 0.12 0.12 0.14 0.18 0.21
0.06 0.13 0.32 0.46 0.54 0.55 0.55 0.51 0.47 0.42 0.47 0.57 0.64 0.58 0.48 0.38 0.36 0.36 0.30 0.30 0.34 0.40 0.43 0.45 0.37 0.29 0.21 0.18 0.13 0.09 0.08 0.07 0.05 0.03 0.03 0.05 0.08 0.11 0.11 0.11 0.14 0.18 0.20
0.11 0.16 0.32 0.52 0.56 0.57 0.58 0.57 0.54 0.51 0.50 0.57 0.65 0.60 0.51 0.44 0.43 0.40 0.35 0.31 0.35 0.36 0.33 0.34 0.29 0.22 0.16 0.12 0.11 0.08 0.07 0.06 0.04 0.03 0.06 0.07 0.08 0.13 0.15 0.15 0.17 0.20 0.22
0.21 0.25 0.42 0.59 0.65 0.62 0.61 0.58 0.60 0.60 0.59 0.60 0.64 0.61 0.53 0.48 0.48 0.46 0.40 0.32 0.31 0.32 0.31 0.28 0.24 0.17 0.12 0.09 0.08 0.08 0.08 0.07 0.04 0.03 0.07 0.08 0.11 0.18 0.22 0.21 0.22 0.24 0.23
0.30 0.42 0.62 0.74 0.76 0.74 0.69 0.64 0.65 0.68 0.72 0.72 0.70 0.66 0.59 0.55 0.54 0.50 0.44 0.31 0.27 0.27 0.29 0.26 0.23 0.17 0.12 0.09 0.08 0.07 0.08 0.07 0.04 0.03 0.04 0.07 0.11 0.23 0.25 0.24 0.25 0.26 0.27
0.39 0.57 0.81 0.94 0.93 0.88 0.82 0.81 0.79 0.80 0.82 0.81 0.78 0.73 0.64 0.60 0.58 0.53 0.43 0.30 0.26 0.26 0.28 0.25 0.23 0.19 0.15 0.12 0.10 0.08 0.07 0.05 0.03 0.03 0.04 0.07 0.13 0.24 0.23 0.25 0.28 0.31 0.33
0.66 0.84 1.03 1.17 1.14 1.01 0.91 0.86 0.83 0.83 0.85 0.84 0.78 0.75 0.71 0.66 0.63 0.57 0.45 0.33 0.29 0.31 0.34 0.29 0.25 0.21 0.17 0.14 0.12 0.10 0.06 0.05 0.04 0.03 0.05 0.06 0.14 0.26 0.24 0.22 0.25 0.30 0.34
1.15 1.26 1.30 1.32 1.25 1.19 1.03 0.91 0.84 0.82 0.86 0.87 0.83 0.80 0.77 0.73 0.73 0.63 0.51 0.42 0.37 0.37 0.36 0.33 0.27 0.23 0.20 0.17 0.14 0.10 0.06 0.04 0.04 0.04 0.04 0.07 0.15 0.29 0.31 0.30 0.33 0.34 0.33
1.58 1.67 1.67 1.59 1.47 1.36 1.22 1.01 0.89 0.86 0.86 0.87 0.84 0.75 0.69 0.68 0.68 0.60 0.47 0.43 0.42 0.40 0.36 0.32 0.27 0.26 0.22 0.18 0.15 0.11 0.07 0.05 0.04 0.04 0.06 0.10 0.22 0.37 0.41 0.41 0.42 0.39 0.33
1.93 1.96 2.02 1.96 1.77 1.63 1.40 1.10 0.98 0.94 0.92 0.88 0.85 0.72 0.69 0.70 0.65 0.51 0.40 0.35 0.37 0.38 0.35 0.33 0.29 0.27 0.24 0.19 0.16 0.13 0.10 0.07 0.05 0.05 0.08 0.15 0.27 0.37 0.39 0.41 0.40 0.33 0.28
2.10 2.11 2.14 2.18 2.12 1.98 1.70 1.41 1.23 1.07 1.01 0.88 0.76 0.75 0.68 0.69 0.70 0.56 0.48 0.41 0.38 0.37 0.35 0.35 0.33 0.30 0.26 0.20 0.17 0.14 0.12 0.10 0.09 0.08 0.08 0.13 0.22 0.35 0.41 0.41 0.36 0.30 0.27
2.30 2.31 2.31 2.39 2.35 2.18 1.92 1.63 1.41 1.25 1.13 1.04 0.87 0.79 0.74 0.74 0.73 0.72 0.68 0.59 0.52 0.42 0.40 0.38 0.38 0.29 0.25 0.23 0.21 0.16 0.14 0.14 0.12 0.10 0.09 0.10 0.20 0.39 0.49 0.46 0.37 0.33 0.31
2.46 2.38 2.39 2.46 2.46 2.31 2.04 1.81 1.54 1.39 1.28 1.19 1.04 0.94 0.91 0.85 0.79 0.74 0.69 0.64 0.62 0.51 0.48 0.44 0.37 0.30 0.25 0.22 0.23 0.22 0.21 0.19 0.17 0.17 0.15 0.13 0.18 0.32 0.43 0.44 0.43 0.43 0.42
2.42 2.44 2.49 2.42 2.39 2.37 2.23 1.98 1.68 1.52 1.38 1.26 1.23 1.09 1.00 0.94 0.87 0.86 0.77 0.69 0.63 0.58 0.55 0.50 0.43 0.38 0.32 0.27 0.25 0.24 0.24 0.22 0.20 0.21 0.20 0.16 0.15 0.20 0.30 0.40 0.48 0.54 0.56
2.16 2.37 2.49 2.48 2.40 2.31 2.30 2.21 1.90 1.57 1.50 1.43 1.33 1.27 1.15 1.04 0.96 0.92 0.85 0.80 0.72 0.64 0.58 0.57 0.52 0.50 0.45 0.41 0.32 0.27 0.26 0.24 0.21 0.20 0.19 0.19 0.18 0.17 0.22 0.33 0.44 0.55 0.64
1.93 2.14 2.35 2.54 2.55 2.39 2.30 2.34 2.27 1.94 1.62 1.45 1.40 1.35 1.29 1.19 1.09 1.01 0.97 0.86 0.76 0.72 0.68 0.69 0.67 0.65 0.57 0.52 0.44 0.39 0.36 0.33 0.28 0.25 0.22 0.20 0.22 0.22 0.23 0.28 0.38 0.50 0.65
1.80 1.97 2.14 2.27 2.48 2.46 2.33 2.24 2.26 2.18 1.91 1.64 1.45 1.36 1.29 1.21 1.19 1.18 1.14 1.07 0.94 0.89 0.84 0.77 0.73 0.71 0.64 0.59 0.55 0.50 0.46 0.42 0.38 0.35 0.33 0.30 0.28 0.25 0.24 0.28 0.35 0.44 0.57
1.69 1.87 2.13 2.09 2.22 2.45 2.58 2.43 2.25 2.15 1.99 1.78 1.56 1.36 1.27 1.28 1.27 1.22 1.14 1.14 1.16 1.05 0.94 0.88 0.79 0.73 0.66 0.63 0.64 0.59 0.54 0.51 0.46 0.43 0.42 0.41 0.40 0.38 0.35 0.34 0.32 0.33 0.40
1.71 1.83 2.06 2.08 2.17 2.39 2.65 2.65 2.51 2.31 2.05 1.90 1.66 1.43 1.28 1.25 1.32 1.26 1.17 1.16 1.19 1.14 0.98 0.90 0.84 0.80 0.72 0.72 0.71 0.64 0.59 0.55 0.53 0.50 0.46 0.45 0.44 0.44 0.43 0.40 0.37 0.36 0.36
1.83 1.84 1.95 2.06 2.18 2.28 2.39 2.36 2.25 2.20 2.11 1.99 1.83 1.68 1.49 1.37 1.39 1.41 1.32 1.27 1.27 1.20 1.10 1.07 1.07 0.98 0.89 0.90 0.86 0.68 0.57 0.54 0.52 0.50 0.48 0.46 0.42 0.41 0.39 0.38 0.38 0.36 0.36
1.76 1.81 1.95 2.08 2.14 2.13 2.23 2.38 2.29 2.33 2.32 2.25 2.14 1.96 1.77 1.60 1.55 1.52 1.52 1.50 1.44 1.34 1.26 1.20 1.18 1.12 1.03 1.06 1.05 0.98 0.74 0.57 0.49 0.46 0.46 0.44 0.44 0.44 0.40 0.39 0.39 0.37 0.34
1.63 1.84 1.94 2.01 2.11 2.14 2.34 2.74 2.68 2.55 2.49 2.42 2.31 2.17 2.00 1.85 1.76 1.63 1.57 1.64 1.60 1.49 1.39 1.34 1.29 1.24 1.22 1.22 1.18 1.22 0.98 0.69 0.54 0.49 0.46 0.43 0.44 0.48 0.49 0.48 0.44 0.40 0.35
1.44 1.69 1.95 2.05 2.18 2.33 2.53 2.73 2.77 2.52 2.33 2.29 2.27 2.25 2.19 1.97 1.87 1.80 1.72 1.67 1.69 1.65 1.52 1.47 1.44 1.37 1.33 1.28 1.25 1.13 1.04 0.88 0.79 0.62 0.49 0.47 0.46 0.44 0.46 0.48 0.47 0.46 0.45
1.30 1.47 1.71 1.97 2.08 2.32 2.49 2.57 2.72 2.52 2.25 2.25 2.25 2.20 2.19 2.10 1.90 1.82 1.77 1.67 1.58 1.57 1.56 1.55 1.51 1.46 1.34 1.23 1.18 1.12 1.06 0.90 0.77 0.73 0.57 0.46 0.47 0.45 0.45 0.47 0.50 0.51 0.51
1.13 1.25 1.40 1.62 1.74 1.87 2.07 2.27 2.44 2.46 2.36 2.25 2.13 2.06 2.02 1.99 1.95 1.87 1.80 1.71 1.57 1.47 1.43 1.43 1.46 1.45 1.42 1.32 1.23 1.17 1.12 1.03 0.89 0.85 0.79 0.62 0.55 0.50 0.50 0.52 0.52 0.52 0.54